EW8665 Weather Reports


time (UTC)temp
F
wind
direction
speed
knots
gust
knots
rain 1hr
in
rain 24hr
in
rain mn
in
humidity
%
barometer
mb
20260505211504 52 27 1.7 4.3 0.00 0.16 0.16 96 1008.7
20260505211003 52 35 1.7 4.3 0.00 0.16 0.16 96 1008.7
20260505210504 52 35 1.7 4.3 0.00 0.16 0.16 96 1008.5
20260505210004 52 36 1.7 3.5 0.00 0.16 0.16 96 1008.6
20260505205504 52 45 2.6 3.5 0.00 0.16 0.16 96 1008.5
20260505205004 53 40 1.7 3.5 0.00 0.16 0.16 96 1008.7
20260505204503 53 39 0.9 2.6 0.00 0.16 0.16 96 1008.9
20260505204004 53 39 0.9 1.7 0.00 0.16 0.16 96 1008.6
20260505203004 53 29 0.9 1.7 0.00 0.16 0.16 96 1008.5
20260505201504 54 36 0.0 1.7 0.00 0.16 0.16 97 1008.5
20260505200504 54 42 0.0 1.7 0.00 0.16 0.16 97 1008.1
20260505200005 54 34 0.9 2.6 0.00 0.16 0.16 97 1008.2
20260505195004 54 38 0.0 1.7 0.00 0.16 0.16 97 1007.9
20260505194005 54 40 0.9 1.7 0.00 0.16 0.16 96 1007.9
20260505193503 54 36 0.9 1.7 0.00 0.16 0.16 96 1008.0
20260505193009 54 36 0.9 2.6 0.00 0.16 0.16 96 1007.9
20260505192504 54 29 0.9 2.6 0.00 0.16 0.16 96 1008.0
20260505192004 54 38 0.9 1.7 0.00 0.16 0.16 96 1008.0
20260505191003 54 31 0.9 2.6 0.00 0.16 0.16 91 1007.8
20260505190504 55 31 1.7 2.6 0.00 0.16 0.16 91 1007.6
20260505190004 55 26 0.9 2.6 0.00 0.16 0.16 91 1007.8
20260505185504 55 23 0.9 1.7 0.00 0.16 0.16 90 1007.8
20260505185005 55 14 1.7 3.5 0.00 0.16 0.16 89 1007.7
20260505184505 55 16 1.7 3.5 0.01 0.16 0.16 88 1007.7
20260505183505 56 355 1.7 4.3 0.07 0.16 0.16 86 1007.4
20260505183006 56 342 1.7 4.3 0.07 0.16 0.16 86 1007.3
20260505182505 57 313 0.9 2.6 0.07 0.16 0.16 86 1007.5
20260505182005 57 287 1.7 4.3 0.07 0.16 0.16 86 1007.4
20260505181505 57 273 2.6 4.3 0.07 0.16 0.16 85 1007.3
20260505181006 58 272 2.6 7.0 0.07 0.16 0.16 84 1007.3
20260505180505 58 257 2.6 7.0 0.07 0.16 0.16 83 1007.5
20260505180005 58 251 2.6 7.0 0.07 0.15 0.15 84 1007.5
20260505175005 59 244 2.6 8.7 0.07 0.15 0.15 83 1007.6
20260505174508 59 243 3.5 8.7 0.06 0.15 0.15 81 1007.6
20260505173506 61 227 2.6 7.0 0.00 0.09 0.09 77 1007.5
20260505173005 61 227 2.6 6.1 0.00 0.09 0.09 76 1007.4
20260505172005 62 240 2.6 5.2 0.00 0.09 0.09 74 1007.1
20260505171506 63 243 1.7 5.2 0.00 0.09 0.09 73 1007.1
20260505170005 63 268 3.5 7.0 0.00 0.09 0.09 70 1006.9
20260505165506 63 268 2.6 7.0 0.00 0.09 0.09 70 1007.1
20260505165005 63 267 0.9 6.1 0.00 0.09 0.09 71 1007.0
20260505164505 63 275 0.9 6.1 0.00 0.10 0.09 72 1007.1
20260505164008 63 269 1.7 6.1 0.00 0.10 0.09 72 1007.0
20260505163506 62 268 2.6 6.1 0.00 0.10 0.09 72 1006.9
20260505163006 62 268 2.6 6.1 0.00 0.11 0.09 72 1007.1
20260505162505 62 272 2.6 6.1 0.00 0.11 0.09 73 1007.0
20260505162005 62 271 1.7 3.5 0.00 0.11 0.09 75 1007.1
20260505161505 62 261 0.9 2.6 0.00 0.11 0.09 76 1007.1
20260505161005 61 238 0.9 2.6 0.00 0.11 0.09 76 1007.1
20260505160505 61 233 1.7 6.1 0.00 0.11 0.09 75 1007.2
20260505153006 62 265 3.5 6.1 0.00 0.12 0.09 76 1007.3
20260505152505 62 256 3.5 6.1 0.00 0.12 0.09 76 1007.4
20260505152005 62 260 3.5 7.0 0.02 0.12 0.09 78 1007.2
20260505151506 62 259 2.6 7.0 0.04 0.12 0.09 79 1007.1
20260505151005 61 277 2.6 6.1 0.06 0.12 0.09 83 1007.3
20260505150509 60 289 2.6 6.1 0.06 0.12 0.09 84 1007.3
20260505140505 62 233 2.6 5.2 0.02 0.06 0.03 78 1007.3
20260505125006 64 297 2.6 5.2 0.00 0.05 0.01 67 1007.3
20260505124505 64 273 2.6 5.2 0.00 0.05 0.01 69 1007.2
20260505124005 63 301 2.6 5.2 0.00 0.05 0.01 75 1007.3
20260505123506 63 330 1.7 3.5 0.00 0.05 0.01 73 1007.4
20260505123005 63 283 1.7 3.5 0.00 0.05 0.01 75 1007.4
20260505122508 62 244 1.7 3.5 0.00 0.05 0.01 76 1007.5
20260505122004 62 295 1.7 3.5 0.00 0.05 0.01 77 1007.6
20260505121506 62 280 0.9 3.5 0.00 0.05 0.01 78 1007.6
20260505121006 62 309 1.7 3.5 0.00 0.05 0.01 77 1007.6
20260505120505 61 307 1.7 3.5 0.01 0.05 0.01 79 1007.7
20260505120005 61 298 1.7 4.3 0.01 0.05 0.01 80 1007.8
20260505115506 60 285 2.6 4.3 0.01 0.05 0.01 81 1007.7
20260505115005 60 273 1.7 3.5 0.01 0.05 0.01 82 1007.9
20260505114505 59 273 1.7 4.3 0.01 0.05 0.01 84 1007.9
20260505114005 59 264 1.7 4.3 0.01 0.05 0.01 84 1007.9
20260505113505 59 257 2.6 4.3 0.01 0.05 0.01 85 1008.2
20260505113005 58 260 2.6 4.3 0.01 0.05 0.01 84 1008.1
20260505112505 58 266 2.6 4.3 0.01 0.05 0.01 84 1008.3
20260505112005 58 268 2.6 4.3 0.01 0.05 0.01 85 1008.3
20260505111505 58 261 2.6 5.2 0.00 0.04 0.01 85 1008.3
20260505111005 58 257 2.6 5.2 0.00 0.04 0.01 85 1008.3
20260505110505 58 256 2.6 5.2 0.00 0.04 0.00 85 1008.5
20260505102005 59 232 2.6 4.3 0.00 0.04 0.00 82 1008.5
20260505101505 59 238 2.6 4.3 0.00 0.04 0.00 82 1008.4
20260505100508 59 232 1.7 4.3 0.00 0.04 0.00 82 1008.3
20260505100005 59 240 1.7 3.5 0.00 0.04 0.00 82 1008.3
20260505095506 59 240 1.7 4.3 0.00 0.04 0.00 84 1008.4
20260505095005 58 238 3.5 6.1 0.00 0.04 0.00 84 1008.4
20260505094504 58 234 3.5 6.1 0.00 0.04 0.00 84 1008.2
20260505094005 58 237 3.5 6.1 0.00 0.04 0.00 84 1008.3
20260505093505 58 269 3.5 6.1 0.00 0.04 0.00 84 1008.1
20260505093005 59 11 1.7 6.1 0.00 0.04 0.00 85 1008.2
20260505092505 59 42 0.9 2.6 0.00 0.04 0.00 85 1008.2
20260505092005 59 37 1.7 3.5 0.00 0.04 0.00 85 1008.1
20260505090505 59 306 0.9 3.5 0.00 0.04 0.00 85 1008.0
20260505090005 59 306 0.9 1.7 0.00 0.04 0.00 85 1008.2
20260505085505 58 311 0.9 1.7 0.00 0.04 0.00 84 1008.1
20260505084505 58 308 1.7 3.5 0.00 0.04 0.00 85 1008.2
20260505084005 58 304 1.7 3.5 0.00 0.04 0.00 84 1008.2
20260505083505 58 325 0.9 3.5 0.00 0.04 0.00 83 1008.2
20260505083005 58 324 1.7 4.3 0.00 0.04 0.00 83 1008.1
20260505082504 58 334 1.7 4.3 0.00 0.04 0.00 82 1008.2
20260505082005 58 347 1.7 3.5 0.00 0.04 0.00 81 1008.3
20260505081505 58 317 0.9 3.5 0.00 0.04 0.00 82 1008.3
20260505081005 58 270 0.9 3.5 0.00 0.04 0.00 82 1008.3
20260505080505 58 243 0.9 1.7 0.00 0.04 0.00 82 1008.3
20260505080005 58 242 0.9 3.5 0.00 0.04 0.00 82 1008.5
20260505075505 58 243 1.7 3.5 0.00 0.04 0.00 83 1008.4
20260505075005 58 242 1.7 3.5 0.00 0.04 0.00 84 1008.4
20260505074506 58 242 2.6 3.5 0.00 0.04 0.00 84 1008.4
20260505074005 58 249 2.6 3.5 0.00 0.04 0.00 85 1008.5
20260505073504 58 252 1.7 3.5 0.00 0.04 0.00 85 1008.5
20260505073005 58 253 1.7 3.5 0.00 0.04 0.00 86 1008.4
20260505072005 57 252 1.7 3.5 0.00 0.04 0.00 87 1008.4
20260505071505 57 261 1.7 2.6 0.00 0.04 0.00 87 1008.6
20260505070505 57 313 1.7 3.5 0.00 0.04 0.00 86 1008.6
20260505070005 57 1 0.9 3.5 0.00 0.04 0.00 85 1008.7
20260505065505 57 17 0.9 1.7 0.00 0.04 0.00 85 1008.7
20260505065005 56 19 0.9 1.7 0.00 0.04 0.00 86 1008.8
20260505064505 56 24 0.9 1.7 0.00 0.04 0.00 87 1008.8
20260505063505 56 41 0.9 2.6 0.00 0.04 0.00 88 1009.0
20260505063005 56 48 0.9 1.7 0.00 0.04 0.00 88 1009.0
20260505062505 56 55 0.9 1.7 0.00 0.04 0.00 88 1009.0
20260505062005 55 64 0.9 1.7 0.00 0.04 0.00 89 1009.0
20260505061505 55 65 0.0 1.7 0.00 0.04 0.00 88 1008.8
20260505061005 55 72 0.0 1.7 0.00 0.04 0.00 89 1008.9
20260505060505 55 75 0.0 1.7 0.00 0.04 0.00 89 1008.9
20260505060008 55 78 0.9 1.7 0.00 0.04 0.00 89 1009.0
20260505055505 54 84 0.9 1.7 0.00 0.04 0.00 89 1008.9
20260505055008 54 85 0.9 2.6 0.00 0.04 0.00 93 1009.1
20260505054505 54 84 0.9 2.6 0.00 0.04 0.00 93 1009.2
20260505054006 54 77 0.9 1.7 0.00 0.04 0.00 93 1009.1
20260505053505 54 75 0.9 1.7 0.00 0.04 0.00 93 1009.0
20260505053005 54 75 0.9 1.7 0.00 0.04 0.00 92 1009.1
20260505051505 54 66 0.9 2.6 0.00 0.04 0.00 92 1009.1
20260505051005 54 64 0.9 1.7 0.00 0.04 0.00 92 1008.9
20260505050505 54 61 0.9 2.6 0.00 0.04 0.00 92 1009.1
20260505041008 53 98 0.0 1.7 0.00 0.04 0.00 89 1009.0
20260505040505 53 94 0.0 1.7 0.00 0.04 0.00 89 1008.8
20260505040005 53 97 0.9 1.7 0.00 0.04 0.00 88 1009.0
20260505035504 53 111 0.9 1.7 0.00 0.04 0.00 88 1009.0
20260505035004 54 230 0.9 1.7 0.00 0.04 0.00 87 1009.1
20260505034005 54 353 0.0 1.7 0.00 0.04 0.00 87 1009.1
20260505033505 54 10 0.9 1.7 0.00 0.04 0.00 86 1009.0
20260505033005 54 9 0.9 1.7 0.00 0.04 0.00 86 1009.0
20260505032505 54 25 0.9 3.5 0.00 0.04 0.00 87 1009.0
20260505031504 53 40 2.6 4.3 0.00 0.04 0.00 88 1008.8
20260505030505 53 47 2.6 4.3 0.00 0.04 0.00 90 1009.0
20260505030005 53 58 3.5 4.3 0.00 0.04 0.00 90 1008.9
20260505025505 52 58 2.6 4.3 0.00 0.04 0.00 91 1009.1
20260505025005 52 57 2.6 4.3 0.00 0.04 0.00 91 1009.2
20260505024504 52 57 1.7 4.3 0.00 0.04 0.00 91 1009.3
20260505024005 52 59 1.7 4.3 0.00 0.04 0.00 91 1009.4
20260505023505 52 56 1.7 2.6 0.00 0.04 0.00 91 1009.3
20260505023005 52 53 1.7 2.6 0.00 0.04 0.00 91 1009.6
20260505022005 53 63 0.9 2.6 0.00 0.04 0.00 90 1009.4
20260505021504 53 76 0.9 2.6 0.00 0.04 0.00 90 1009.7
20260505021004 53 73 0.9 2.6 0.00 0.04 0.00 90 1009.8
20260505020505 53 80 0.9 2.6 0.00 0.04 0.00 89 1009.7
20260505015505 53 60 0.9 1.7 0.00 0.04 0.00 90 1009.9
20260505015005 53 61 0.9 2.6 0.00 0.04 0.00 90 1009.9
20260505014506 53 57 1.7 3.5 0.00 0.04 0.00 90 1009.8
20260505014004 52 62 1.7 3.5 0.00 0.04 0.00 90 1009.8
20260505013505 53 63 1.7 2.6 0.00 0.04 0.00 90 1009.8
20260505013005 53 72 2.6 3.5 0.00 0.04 0.00 90 1010.0
20260505012505 53 78 1.7 3.5 0.00 0.04 0.00 90 1010.0
20260505012005 53 89 0.9 2.6 0.00 0.04 0.00 90 1010.0
20260505011505 53 79 0.9 2.6 0.00 0.04 0.00 90 1010.1
20260505005504 53 18 0.0 1.7 0.00 0.04 0.00 89 1010.3
20260505005005 53 11 0.9 1.7 0.00 0.04 0.00 88 1010.5
20260505004505 53 19 0.9 1.7 0.00 0.04 0.00 88 1010.7
20260505004005 53 23 1.7 3.5 0.00 0.04 0.00 87 1010.7
20260505003505 53 25 2.6 4.3 0.00 0.04 0.00 88 1010.6
20260505003005 53 34 2.6 5.2 0.00 0.04 0.00 88 1010.7
20260505002505 53 44 3.5 6.1 0.00 0.04 0.00 88 1010.7
20260505002004 54 55 3.5 6.1 0.00 0.04 0.00 88 1010.7
20260505001505 54 62 2.6 5.2 0.00 0.04 0.00 88 1010.6
20260505001005 54 64 1.7 4.3 0.00 0.04 0.00 88 1010.8
20260505000005 54 63 1.7 2.6 0.00 0.04 0.00 89 1011.0
20260504235004 54 60 1.7 3.5 0.00 0.04 0.00 89 1011.2
20260504234504 54 52 1.7 2.6 0.00 0.04 0.00 88 1011.2
20260504234005 54 55 0.9 2.6 0.00 0.04 0.00 86 1011.3
20260504233505 54 51 0.9 2.6 0.00 0.04 0.00 86 1011.1
20260504233005 55 54 1.7 2.6 0.00 0.04 0.00 86 1011.4
20260504232504 55 49 1.7 2.6 0.00 0.04 0.00 86 1011.6
20260504232004 55 40 1.7 2.6 0.00 0.04 0.00 86 1011.4
20260504231504 54 33 0.9 2.6 0.00 0.04 0.00 86 1011.6
20260504231004 54 14 1.7 2.6 0.00 0.04 0.00 86 1011.6
20260504230005 54 359 0.9 2.6 0.00 0.04 0.00 87 1011.6
20260504225504 54 8 1.7 2.6 0.00 0.04 0.00 90 1011.8
20260504225004 54 14 2.6 3.5 0.00 0.04 0.00 90 1011.9
20260504224504 54 13 2.6 3.5 0.00 0.04 0.00 90 1011.8
20260504224005 54 22 1.7 3.5 0.00 0.04 0.00 90 1012.0
20260504223505 54 21 1.7 2.6 0.00 0.04 0.00 90 1012.0
20260504222505 54 6 1.7 3.5 0.00 0.04 0.00 91 1011.8
20260504222007 54 4 1.7 4.3 0.00 0.04 0.00 91 1012.1
20260504221504 54 10 3.5 6.1 0.00 0.04 0.00 92 1011.7
20260504220505 54 22 3.5 6.1 0.00 0.04 0.00 94 1011.7
20260504220005 54 32 3.5 6.1 0.00 0.04 0.00 94 1011.6
20260504215505 54 40 3.5 6.1 0.00 0.04 0.04 94 1011.8
20260504215004 54 45 3.5 6.1 0.00 0.04 0.04 95 1011.6
20260504214004 54 50 3.5 5.2 0.00 0.04 0.04 95 1012.0
20260504213504 54 54 2.6 4.3 0.00 0.04 0.04 95 1012.2
20260504212505 54 57 2.6 4.3 0.00 0.04 0.04 95 1012.4
20260504212005 54 61 2.6 4.3 0.00 0.04 0.04 95 1012.6